This is the latest recevied weather packets stored in our database for station/object WE8L. If no packets are shown the sender has not sent any weather packets the latest 10 day(s).
| Time | Temp. | Humidity | Pressure | Rain* | Wind** | Luminosity | Snow |
|---|---|---|---|---|---|---|---|
| 1777671790 | 11.67° C | 54% | 1017.5 hPa | 0 mm | - | 79 W/m² | - |
| 1777671487 | 11.67° C | 56% | 1017.9 hPa | 0 mm | - | 61 W/m² | - |
| 1777671183 | 11.67° C | 54% | 1017.7 hPa | 0 mm | - | 41 W/m² | - |
| 1777670879 | 11.67° C | 56% | 1017.6 hPa | 0 mm | - | 43 W/m² | - |
| 1777670576 | 11.67° C | 56% | 1017.8 hPa | 0 mm | - | 46 W/m² | - |
| 1777670273 | 11.67° C | 60% | 1017.8 hPa | 0 mm | - | 93 W/m² | - |
| 1777669970 | 11.67° C | 59% | 1017.8 hPa | 0 mm | - | 52 W/m² | - |
| 1777669667 | 11.67° C | 58% | 1017.6 hPa | 0 mm | - | 70 W/m² | - |
| 1777669364 | 11.67° C | 58% | 1017.6 hPa | 0 mm | - | 77 W/m² | - |
| 1777669060 | 11.67° C | 57% | 1017.7 hPa | 0 mm | - | 80 W/m² | - |
| 1777668757 | 12.22° C | 60% | 1017.6 hPa | 0 mm | - | 103 W/m² | - |
| 1777668454 | 11.67° C | 60% | 1017.8 hPa | 0 mm | - | 87 W/m² | - |
| 1777668151 | 12.22° C | 58% | 1017.8 hPa | 0 mm | - | 84 W/m² | - |
| 1777667847 | 12.22° C | 59% | 1017.8 hPa | 0 mm | - | 120 W/m² | - |
| 1777667545 | 12.22° C | 59% | 1017.8 hPa | 0 mm | - | 113 W/m² | - |
| 1777667242 | 11.67° C | 58% | 1017.7 hPa | 0 mm | - | 105 W/m² | - |
| 1777666939 | 11.67° C | 58% | 1017.5 hPa | 0 mm | - | 94 W/m² | - |
| 1777666635 | 12.22° C | 59% | 1017.7 hPa | 0 mm | - | 62 W/m² | - |
| 1777666332 | 12.22° C | 62% | 1017.4 hPa | 0 mm | - | 68 W/m² | - |
| 1777666029 | 11.67° C | 60% | 1017.4 hPa | 0 mm | - | 93 W/m² | - |
| 1777665726 | 12.22° C | 56% | 1017.5 hPa | 0 mm | - | 73 W/m² | - |
| 1777665423 | 11.67° C | 59% | 1017.6 hPa | 0 mm | - | 102 W/m² | - |
| 1777665119 | 11.67° C | 58% | 1017.7 hPa | 0 mm | - | 92 W/m² | - |
| 1777664815 | 12.22° C | 57% | 1017.4 hPa | 0 mm | - | 89 W/m² | - |
| 1777664510 | 12.78° C | 58% | 1017.5 hPa | 0 mm | - | 91 W/m² | - |
* Rain latest hour (hover to see other rain measurements)
** Current wind speed in m/s (hover to see current wind gust speed)